Alderney, United Kingdom

7:51 AM GMT on February 23, 2017 (GMT +0000)
Alderney

Weather History for EGJA - October, 2012

Change the Weather History Date:

Sunday, October 7, 2012

  Actual Average Record
Temperature  
Mean Temperature 55 °F -  
Max Temperature 59 °F 57 °F 62 °F (2007)
Min Temperature 51 °F 52 °F 51 °F (2012)
Degree Days  
Heating Degree Days 10    
Growing Degree Days 5 (Base 50)    
Moisture  
Dew Point 49 °F    
Average Humidity 77    
Maximum Humidity 94    
Minimum Humidity 63    
Precipitation  
Precipitation 0.00 in - - ()
Sea Level Pressure  
Sea Level Pressure 30.14 in    
Wind  
Wind Speed 10 mph ()    
Max Wind Speed 16 mph    
Max Gust Speed -    
Visibility 6.2 miles    
Events      
Averages and records for this station are not official NWS values.
T = Trace of Precipitation, MM = Missing Value Source: Averaged Metar Reports

Daily Weather History Graph

Daily Weather History Graph

Search for Another Location

Airport or City:

Trip Planner

Search our weather history database for the weather conditions in past years. The results will help you decide how hot, cold, wet, or windy it might be!

Date:

Astronomy

Oct. 07, 2012 Rise Set
Actual Time 7:18 AM BST 6:33 PM BST
Civil Twilight 6:46 AM BST 7:05 PM BST
Nautical Twilight 6:08 AM BST 7:43 PM BST
Astronomical Twilight 5:31 AM BST 8:20 PM BST
Moon 11:08 PM BST (10/7) 2:09 PM BST (10/7)
Length of Visible Light 12h 19m
Length of Day
11h 15m
Waning Gibbous, 58% of the Moon is Illuminated
Oct 7
Waning Gibbous
Oct 8
Last Quarter
Oct 15
New
Oct 22
First Quarter
Oct 29
Full

Hourly Weather History & Observations

Time (BST) Temp. Dew Point Humidity Pressure Visibility Wind Dir Wind Speed Gust Speed Precip Events Conditions
6:50 AM 51.8 °F 48.2 °F 88% 30.09 in 6.2 mi ENE 9.2 mph - N/A   Partly Cloudy
7:20 AM 51.8 °F 48.2 °F 88% 30.09 in 6.2 mi ENE 11.5 mph - N/A   Partly Cloudy
7:50 AM 51.8 °F 50.0 °F 94% 30.09 in 6.2 mi ENE 10.4 mph - N/A   Partly Cloudy
8:20 AM 53.6 °F 50.0 °F 88% 30.12 in 6.2 mi ENE 9.2 mph - N/A   Partly Cloudy
8:50 AM 53.6 °F 48.2 °F 82% 30.12 in 6.2 mi ENE 12.7 mph - N/A   Partly Cloudy
9:20 AM 55.4 °F 48.2 °F 77% 30.15 in 6.2 mi ENE 11.5 mph - N/A   Partly Cloudy
9:50 AM 55.4 °F 48.2 °F 77% 30.15 in 6.2 mi ENE 13.8 mph - N/A   Partly Cloudy
10:20 AM 55.4 °F 48.2 °F 77% 30.15 in 6.2 mi East 12.7 mph - N/A   Partly Cloudy
10:50 AM 57.2 °F 50.0 °F 77% 30.15 in 6.2 mi East 10.4 mph - N/A   Partly Cloudy
11:20 AM 57.2 °F 50.0 °F 77% 30.15 in 6.2 mi East 12.7 mph - N/A   Scattered Clouds
11:50 AM 57.2 °F 50.0 °F 77% 30.15 in 6.2 mi East 12.7 mph - N/A   Scattered Clouds
12:20 PM 59.0 °F 50.0 °F 72% 30.15 in 6.2 mi ESE 11.5 mph - N/A   Partly Cloudy
12:50 PM 59.0 °F 51.8 °F 77% 30.18 in 6.2 mi ESE 11.5 mph - N/A   Partly Cloudy
1:20 PM 59.0 °F 50.0 °F 72% 30.15 in 6.2 mi ESE 9.2 mph - N/A   Partly Cloudy
1:50 PM 57.2 °F 48.2 °F 72% 30.15 in 6.2 mi ESE 10.4 mph - N/A   Partly Cloudy
2:20 PM 57.2 °F 48.2 °F 72% 30.15 in 6.2 mi East 12.7 mph - N/A   Partly Cloudy
2:50 PM 57.2 °F 48.2 °F 72% 30.15 in 6.2 mi East 12.7 mph - N/A   Partly Cloudy
3:20 PM 57.2 °F 46.4 °F 67% 30.15 in 6.2 mi ESE 12.7 mph - N/A   Partly Cloudy
3:50 PM 55.4 °F 44.6 °F 67% 30.15 in 6.2 mi ESE 15.0 mph - N/A   Partly Cloudy
4:20 PM 55.4 °F 44.6 °F 67% 30.12 in 6.2 mi ESE 15.0 mph - N/A   Partly Cloudy
4:50 PM 55.4 °F 44.6 °F 67% 30.12 in 6.2 mi East 15.0 mph - N/A   Partly Cloudy
5:20 PM 55.4 °F 42.8 °F 63% 30.12 in 6.2 mi ESE 12.7 mph - N/A   Partly Cloudy
5:50 PM 55.4 °F 48.2 °F 77% 30.12 in 6.2 mi ESE 15.0 mph - N/A   Partly Cloudy
6:50 PM 55.4 °F 53.6 °F 94% 30.15 in 6.2 mi ESE 12.7 mph - N/A   Partly Cloudy
7:20 PM 55.4 °F 53.6 °F 94% 30.12 in 6.2 mi ESE 16.1 mph - N/A   Partly Cloudy